[[{"header":{"parameterUnit":"m.s-1","parameterCategory":1,"la1":30.2991,"la2":30.254,"lo1":-89.0895,"lo2":-89.0444,"dy":0.0017,"dx":0.0017,"nx":28,"ny":28,"refTime":"2026-02-17T03:00:00:Z","depth":0,"parameterNumber":2,"parameterNumberName":"U-component_of_WINDS"},"data":[0,0,0,0,0,0,0,0,0,0,0,0,0,0,0,0,0,0,0,0,0,0,0,0,0,0,0,0,0,0,0,0,0,0,0,0,0,0,0,0,0,0,0,0,0,0,0,0,0,0,0,0,0,0,0,0,0,0,1.0411,1.0413,0,1.0538,1.0539,1.0541,1.0577,1.0577,1.0576,1.0575,1.0708,1.0712,1.0716,0,0,0,0,0,0,0,0,0,0,0,0,0,1.0203,1.0207,1.0411,1.0413,1.0414,1.0538,1.0539,1.0541,1.0577,1.0577,1.0576,1.0575,1.0706,1.0711,1.0716,0,0,0,0,0,0,0,0,0,0,0,0,0,1.0308,1.0208,1.0411,1.0447,1.0452,1.0537,1.0539,1.0542,1.0578,1.0577,1.0575,1.0575,1.0705,1.0711,1.0717,1.0776,0,0,1.0736,1.0739,0,0,0,0,0,0,0,0,1.0302,1.0316,1.044,1.0445,1.045,1.0541,1.0515,1.062,1.0578,1.053,1.0575,1.0574,1.0653,1.0663,1.069,1.0782,1.0788,1.0737,1.074,1.0743,1.0745,0,0,0,0,0,0,0,1.0295,1.031,1.0461,1.0442,1.0448,1.0458,1.0472,1.0535,1.0596,1.0534,1.0537,1.0551,1.0656,1.0683,1.0693,1.079,1.0736,1.0742,1.0746,1.0748,1.0938,1.0939,0,0,0,0,0,0,1.0281,1.0304,1.0457,1.0465,1.0372,1.0463,1.0478,1.0513,1.0595,1.0607,1.0552,1.0552,1.0673,1.0686,1.0698,1.0773,1.0743,1.0749,1.0752,1.0937,1.0939,1.094,0,0,0,0,0,0,1.0276,1.0294,1.0452,1.0385,1.0406,1.0467,1.0506,1.0516,1.0544,1.0609,1.062,1.0569,1.0673,1.0689,1.0756,1.0778,1.0752,1.0757,1.0935,1.0937,1.0939,1.0923,0,0,0,0,0,0,1.027,1.0292,1.0315,1.0386,1.041,1.0508,1.0507,1.0519,1.0554,1.0556,1.0628,1.0639,1.0673,1.0747,1.0762,1.0786,1.0762,1.0934,1.0936,1.0939,1.0922,1.0924,1.0926,0,0,0,0,0,1.0263,1.0306,1.0316,1.0334,1.0439,1.0509,1.0523,1.0561,1.0556,1.0579,1.0621,1.0637,1.0773,1.0753,1.0771,1.0797,1.0933,1.0936,1.0938,1.0921,1.0923,1.0926,0,0,0,0,0,0,1.0237,1.0316,1.0328,1.0395,1.0445,1.0515,1.0546,1.0563,1.0616,1.0615,1.0661,1.0677,1.0741,1.0776,1.0753,1.0859,1.0853,1.086,1.0834,1.0837,1.0839,1.0829,1.0767,0,0,0,0,0,1.0239,1.0288,1.0355,1.0408,1.0432,1.0484,1.0516,1.0541,1.0595,1.0617,1.0664,1.0716,1.0771,1.0806,1.086,1.0927,1.0943,1.0954,1.0956,1.0957,1.0962,1.1001,1.1006,1.095,1.0949,1.0949,0,0,1.0244,1.0293,1.0321,1.0404,1.0445,1.0496,1.0502,1.0555,1.0594,1.0625,1.0691,1.0727,1.0789,1.0856,1.0889,1.0888,1.0982,1.0961,1.0961,1.0966,1.1004,1.1009,1.1014,1.0951,1.0951,1.0951,0,0,1.0278,1.032,1.0369,1.041,1.0473,1.0508,1.0519,1.0587,1.0612,1.0679,1.0703,1.075,1.0843,1.0886,1.092,1.0971,1.0987,1.0987,1.0998,1.1035,1.1039,1.1044,1.1062,1.1068,1.0992,1.0992,1.0992,0,1.0277,1.0353,1.0392,1.0444,1.048,1.051,1.056,1.0598,1.0676,1.07,1.0697,1.0815,1.0859,1.0936,1.0949,1.0975,1.0991,1.0979,1.1035,1.104,1.1045,1.1062,1.1069,1.0992,1.0992,1.0992,1.0992,0,1.0348,1.0401,1.0433,1.0505,1.0545,1.0595,1.0643,1.0678,1.07,1.0735,1.0803,1.0856,1.0921,1.0942,1.0964,1.1023,1.1021,1.1026,1.1021,1.1049,1.1066,1.1073,1.0991,1.0991,1.0992,1.0992,0,0,1.037,1.0463,1.0474,1.0507,1.0579,1.0621,1.0673,1.0736,1.0765,1.0818,1.0863,1.0942,1.0947,1.0986,1.1013,1.1045,1.1082,1.1047,1.1049,1.1052,1.1151,1.1146,1.1153,1.1093,1.1095,1.1096,1.1145,0,1.0413,1.0507,1.0543,1.062,1.0669,1.0699,1.0744,1.0793,1.0828,1.0875,1.0914,1.0968,1.0972,1.0995,1.1028,1.107,1.1103,1.1067,1.1137,1.1139,1.112,1.1162,1.1157,1.1201,1.1153,1.1154,1.1155,0,1.0476,1.0528,1.0609,1.0674,1.0696,1.0737,1.0797,1.0842,1.0899,1.0922,1.0964,1.099,1.1046,1.1038,1.1117,1.1093,1.1123,1.1148,1.1151,1.1159,1.1148,1.1171,1.1216,1.1222,1.1166,1.1165,1.1164,0,1.0484,1.0574,1.0634,1.0662,1.0739,1.0767,1.0801,1.0856,1.0892,1.0945,1.0969,1.1028,1.1061,1.1107,1.1148,1.1138,1.1223,1.1218,1.1244,1.1243,1.1261,1.1259,1.1311,1.1281,1.1281,1.128,1.128,0,1.0528,1.0577,1.0638,1.0675,1.0731,1.0773,1.0827,1.0863,1.0912,1.0957,1.0986,1.1028,1.108,1.1129,1.1161,1.1222,1.1237,1.1257,1.1265,1.1254,1.1251,1.1275,1.1273,1.1282,1.1282,1.1282,1.1281,0,1.0546,1.0589,1.0656,1.0724,1.0742,1.078,1.0838,1.0876,1.0911,1.0968,1.0984,1.104,1.1099,1.1144,1.1221,1.1243,1.1307,1.1316,1.1288,1.1292,1.1315,1.1312,1.1383,1.1395,1.1357,1.1357,1.1357,0,1.0571,1.0609,1.068,1.0712,1.0745,1.0796,1.0832,1.0875,1.0912,1.0979,1.1008,1.1069,1.112,1.1213,1.1261,1.132,1.1331,1.1352,1.134,1.1328,1.1331,1.1328,1.1332,1.1353,1.1353,1.1353,1.1353,0,1.0611,1.0631,1.0681,1.0739,1.0781,1.0829,1.0877,1.0902,1.0954,1.0994,1.1054,1.1093,1.1171,1.1231,1.1295,1.1331,1.1351,1.1357,1.1366,1.1355,1.1337,1.1347,1.1291,1.1355,1.1355,1.1355,1.1355,1.1355,1.0633,1.0668,1.0724,1.0779,1.082,1.0864,1.0903,1.0943,1.0993,1.1059,1.1082,1.1144,1.12,1.1288,1.1324,1.1374,1.1375,1.1388,1.1391,1.1394,1.1392,1.1329,1.1386,1.1386,1.1386,1.1386,1.1386,0,1.0675,1.0712,1.0762,1.0829,1.0872,1.0886,1.0941,1.0976,1.103,1.108,1.1129,1.1199,1.1257,1.131,1.1371,1.1401,1.1411,1.1415,1.1413,1.1421,1.1388,1.1374,1.1405,1.1405,1.1405,1.1405,1.1405,1.1405,1.0701,1.0761,1.0787,1.0867,1.0905,1.0964,1.0994,1.1036,1.1076,1.1152,1.12,1.1234,1.1285,1.135,1.1405,1.1419,1.144,1.1441,1.1458,1.1426,1.1424,1.1421,1.1408,1.1446,1.1446,1.1486,1.1487,1.1487]},{"header":{"parameterUnit":"m.s-1","parameterCategory":1,"la1":30.2991,"la2":30.254,"lo1":-89.0895,"lo2":-89.0444,"dy":0.0017,"dx":0.0017,"nx":28,"ny":28,"refTime":"2026-02-17T03:00:00:Z","depth":0,"parameterNumber":3,"parameterNumberName":"V-component_of_WINDS"},"data":[0,0,0,0,0,0,0,0,0,0,0,0,0,0,0,0,0,0,0,0,0,0,0,0,0,0,0,0,0,0,0,0,0,0,0,0,0,0,0,0,0,0,0,0,0,0,0,0,0,0,0,0,0,0,0,0,0,0,-0.9198,-0.9199,0,-0.9344,-0.9346,-0.9347,-0.939,-0.9389,-0.9389,-0.9388,-0.9539,-0.9544,-0.9548,0,0,0,0,0,0,0,0,0,0,0,0,0,-0.8958,-0.8962,-0.9198,-0.92,-0.9201,-0.9344,-0.9346,-0.9348,-0.939,-0.9389,-0.9388,-0.9388,-0.9538,-0.9543,-0.9549,0,0,0,0,0,0,0,0,0,0,0,0,0,-0.9079,-0.8964,-0.9197,-0.924,-0.9245,-0.9343,-0.9346,-0.9348,-0.9391,-0.9389,-0.9388,-0.9387,-0.9536,-0.9543,-0.955,-0.9617,0,0,-0.9571,-0.9575,0,0,0,0,0,0,0,0,-0.9072,-0.9088,-0.9232,-0.9237,-0.9243,-0.9348,-0.9317,-0.9439,-0.9391,-0.9335,-0.9388,-0.9387,-0.9476,-0.9488,-0.9518,-0.9624,-0.9631,-0.9572,-0.9576,-0.9579,-0.9581,0,0,0,0,0,0,0,-0.9064,-0.9082,-0.9256,-0.9234,-0.9241,-0.9252,-0.9268,-0.934,-0.9411,-0.934,-0.9344,-0.936,-0.9479,-0.9511,-0.9522,-0.9633,-0.9572,-0.9578,-0.9583,-0.9585,-0.9805,-0.9806,0,0,0,0,0,0,-0.9048,-0.9074,-0.9251,-0.926,-0.9153,-0.9258,-0.9275,-0.9315,-0.941,-0.9423,-0.9361,-0.9362,-0.95,-0.9514,-0.9528,-0.9616,-0.9579,-0.9586,-0.959,-0.9803,-0.9805,-0.9807,0,0,0,0,0,0,-0.9042,-0.9063,-0.9245,-0.9168,-0.9192,-0.9263,-0.9307,-0.9319,-0.9351,-0.9426,-0.9439,-0.9381,-0.9499,-0.9518,-0.9595,-0.9622,-0.9589,-0.9596,-0.9801,-0.9804,-0.9806,-0.9791,0,0,0,0,0,0,-0.9035,-0.9061,-0.9086,-0.9169,-0.9196,-0.9309,-0.9309,-0.9323,-0.9363,-0.9365,-0.9448,-0.946,-0.95,-0.9584,-0.9602,-0.9631,-0.9601,-0.9799,-0.9802,-0.9805,-0.9789,-0.9792,-0.9795,0,0,0,0,0,-0.9027,-0.9076,-0.9088,-0.9109,-0.923,-0.9311,-0.9327,-0.9371,-0.9365,-0.9392,-0.9441,-0.9458,-0.9615,-0.9592,-0.9612,-0.9644,-0.9798,-0.9802,-0.9805,-0.9788,-0.9791,-0.9795,0,0,0,0,0,0,-0.8995,-0.9087,-0.9101,-0.9178,-0.9236,-0.9318,-0.9353,-0.9373,-0.9434,-0.9434,-0.9486,-0.9504,-0.9579,-0.9619,-0.9591,-0.9715,-0.9707,-0.9715,-0.9687,-0.9691,-0.9694,-0.9684,-0.9607,0,0,0,0,0,-0.8997,-0.9054,-0.9132,-0.9193,-0.9221,-0.9282,-0.9319,-0.9348,-0.941,-0.9435,-0.9489,-0.955,-0.9613,-0.9654,-0.9716,-0.9794,-0.9815,-0.9826,-0.9828,-0.983,-0.9837,-0.9885,-0.9892,-0.9818,-0.9818,-0.9818,0,0,-0.9002,-0.9059,-0.9092,-0.9188,-0.9236,-0.9296,-0.9302,-0.9364,-0.941,-0.9445,-0.9522,-0.9564,-0.9635,-0.9714,-0.9751,-0.9749,-0.9862,-0.9835,-0.9836,-0.9842,-0.9889,-0.9896,-0.9902,-0.9821,-0.982,-0.982,0,0,-0.9042,-0.909,-0.9147,-0.9196,-0.9269,-0.931,-0.9323,-0.9402,-0.9431,-0.9509,-0.9538,-0.9593,-0.97,-0.9751,-0.979,-0.9851,-0.987,-0.9869,-0.9885,-0.9931,-0.9937,-0.9942,-0.9967,-0.9975,-0.9875,-0.9875,-0.9875,0,-0.9039,-0.9129,-0.9174,-0.9236,-0.9279,-0.9312,-0.9372,-0.9417,-0.9507,-0.9536,-0.9532,-0.967,-0.9719,-0.9812,-0.9827,-0.9857,-0.9876,-0.9861,-0.9932,-0.9938,-0.9944,-0.9968,-0.9977,-0.9875,-0.9875,-0.9875,-0.9875,0,-0.9124,-0.9186,-0.9224,-0.9311,-0.9357,-0.9417,-0.9472,-0.9514,-0.9539,-0.958,-0.9661,-0.9722,-0.9799,-0.9822,-0.9847,-0.992,-0.9917,-0.9921,-0.9915,-0.995,-0.9974,-0.9983,-0.9875,-0.9875,-0.9875,-0.9875,0,0,-0.9149,-0.926,-0.9274,-0.9315,-0.9399,-0.9449,-0.9511,-0.9586,-0.9622,-0.9683,-0.9739,-0.9829,-0.9835,-0.988,-0.9911,-0.995,-0.9999,-0.9951,-0.9954,-0.9961,-1.0086,-1.0085,-1.0094,-1.0011,-1.0013,-1.0014,-1.0082,0,-0.9202,-0.9315,-0.9358,-0.9451,-0.9511,-0.9545,-0.96,-0.9658,-0.9698,-0.9756,-0.98,-0.9865,-0.9866,-0.9894,-0.9935,-0.9984,-1.0025,-0.9979,-1.0066,-1.0068,-1.005,-1.0106,-1.0104,-1.0165,-1.0091,-1.0092,-1.0094,0,-0.9279,-0.9342,-0.9441,-0.952,-0.9547,-0.9596,-0.9669,-0.9723,-0.979,-0.9817,-0.9868,-0.9897,-0.9965,-0.9952,-1.0049,-1.0017,-1.0055,-1.0085,-1.0088,-1.01,-1.0085,-1.0123,-1.0185,-1.0195,-1.0108,-1.0107,-1.0106,0,-0.9292,-0.9401,-0.9475,-0.9509,-0.9602,-0.9636,-0.9676,-0.9742,-0.9785,-0.985,-0.9879,-0.995,-0.999,-1.0045,-1.0092,-1.0078,-1.0186,-1.0176,-1.0213,-1.0212,-1.0236,-1.0235,-1.0308,-1.0255,-1.0254,-1.0254,-1.0254,0,-0.9349,-0.9409,-0.9483,-0.9529,-0.9598,-0.9647,-0.9714,-0.9757,-0.9816,-0.9872,-0.9904,-0.9956,-1.0015,-1.0075,-1.0112,-1.0189,-1.0206,-1.0231,-1.0241,-1.023,-1.0227,-1.0258,-1.0256,-1.0257,-1.0256,-1.0256,-1.0255,0,-0.9375,-0.9427,-0.9511,-0.9592,-0.9614,-0.9662,-0.9732,-0.9779,-0.9821,-0.9892,-0.9911,-0.9977,-1.005,-1.0102,-1.0196,-1.0221,-1.0305,-1.0312,-1.0282,-1.0288,-1.0322,-1.032,-1.042,-1.0438,-1.0369,-1.037,-1.037,0,-0.941,-0.9457,-0.9544,-0.9584,-0.9625,-0.9688,-0.9733,-0.9783,-0.9828,-0.991,-0.9947,-1.0022,-1.0085,-1.02,-1.0257,-1.033,-1.0342,-1.0372,-1.0353,-1.0342,-1.0347,-1.0345,-1.0351,-1.0376,-1.0376,-1.0377,-1.0377,0,-0.9466,-0.949,-0.9553,-0.9625,-0.9678,-0.9737,-0.9797,-0.9828,-0.9889,-0.9939,-1.0014,-1.0062,-1.0159,-1.0234,-1.0312,-1.0355,-1.0378,-1.0382,-1.0395,-1.0386,-1.0368,-1.0382,-1.0293,-1.038,-1.038,-1.038,-1.0379,-1.0379,-0.9501,-0.9546,-0.9615,-0.9684,-0.9735,-0.979,-0.984,-0.9888,-0.9951,-1.0034,-1.0059,-1.0138,-1.0206,-1.0314,-1.0358,-1.0421,-1.042,-1.0437,-1.0443,-1.0447,-1.0449,-1.0355,-1.0435,-1.0435,-1.0435,-1.0435,-1.0435,0,-0.9562,-0.9608,-0.9672,-0.9755,-0.9811,-0.9825,-0.9893,-0.9939,-1.0008,-1.0069,-1.0131,-1.0219,-1.0292,-1.0355,-1.0432,-1.047,-1.0483,-1.0489,-1.0488,-1.0499,-1.0443,-1.0426,-1.0478,-1.0478,-1.0478,-1.0478,-1.0478,-1.0478,-0.9601,-0.9679,-0.9711,-0.9815,-0.9861,-0.9938,-0.9976,-1.0029,-1.0078,-1.0175,-1.0236,-1.0276,-1.034,-1.0421,-1.049,-1.0507,-1.0535,-1.054,-1.0559,-1.0507,-1.0502,-1.0497,-1.0482,-1.0544,-1.0545,-1.061,-1.0611,-1.0611]}]]